Location: Eexterzandvoort
(53.0303°N, 6.7884°E)
Time: 01:58:21
(UTC+00:00)

USA-17 - Pass Details

Date: 19 May 2025
Orbit: 394 x 1603 km, 63.3° (Epoch: 22 June)

Event Time Altitude Azimuth Distance (km) Brightness Sun altitude
Rises 23:39:27 0° 310° (NW) 2,327 8.6 -16.9°
Reaches altitude 10° 23:41:30 10° 305° (NW) 1,447 7.4 -16.9°
Maximum altitude 23:44:30 50° 228° (SW) 525 4.4 -16.9°
Enters shadow 23:44:45 49° 209° (SSW) 539 4.4 -16.9°
